Date String (YYYY-MM-DD hh:mm:ss) UTC,Instrument flags,absolute air pressure of the measurement (hPa),sample flow rate (lpm),inlet stack bypass flow (lpm),air temperature of the measurement (°C),ambient temperature measured by the external sensor (°C),aerosol sample conditioner tube jacket temperature (°C),OPC LED temperature (°C),internal box temperature (°C),relative humidity of the measurement (%),span deviation,mass concentration of particles derived from Lorenz-Mie calculation of OPC scattering (μg/m³),mass concentration of particles derived from Lorenz-Mie calculation of OPC scattering (μg/m³),mass concentration of particles derived from Lorenz-Mie calculation of OPC scattering (μg/m³)
DateTimeUTC,F1_M11,P_M11,Q1_M11,Q2_M11,T1_M11,T2_M11,T3_M11,T4_M11,T5_M11,U1_M11,ZSPAN_M11,X2_M11,X0_M11,X1_M11
2024-02-02 22:00:00,SystemResetWarning,0814.1,4.99,000.00,024.9,024.3,000.0,033.1,026.6,12.7,0004.1,0008.11,0022.31,0006.86
2024-02-02 22:01:00,SystemResetWarning,0814.2,5.00,000.00,024.9,024.3,000.0,033.1,026.6,12.8,0004.0,0008.16,0021.95,0006.89
2024-02-02 22:02:00,SystemResetWarning,0814.1,5.00,000.00,024.9,024.3,000.0,033.1,026.7,12.8,0003.6,0008.20,0021.43,0006.92
2024-02-02 22:03:00,SystemResetWarning,0814.1,5.00,000.00,024.9,024.3,000.0,033.1,026.7,12.8,0003.6,0008.26,0021.75,0006.97
2024-02-02 22:04:00,SystemResetWarning,0814.1,5.00,000.00,024.9,024.3,000.0,033.1,026.7,12.7,0002.7,0008.32,0022.56,0007.01
2024-02-02 22:05:00,SystemResetWarning,0814.1,4.99,000.00,024.9,024.3,000.0,033.2,026.7,12.7,0000.9,0008.36,0023.68,0007.04
2024-02-02 22:06:00,SystemResetWarning,0814.1,5.00,000.00,024.9,024.4,000.0,033.2,026.7,12.5,0003.6,0008.36,0024.19,0007.08
2024-02-02 22:07:00,SystemResetWarning,0814.2,5.01,000.00,025.0,024.4,000.0,033.2,026.8,12.4,0003.7,0008.37,0023.75,0007.11
2024-02-02 22:08:00,SystemResetWarning,0814.2,5.01,000.00,025.0,024.4,000.0,033.2,026.8,12.3,0003.8,0008.40,0023.39,0007.14
2024-02-02 22:09:00,SystemResetWarning,0814.2,5.00,000.00,025.0,024.4,000.0,033.2,026.8,12.3,0004.1,0008.40,0023.10,0007.17
2024-02-02 22:10:00,SystemResetWarning,0814.2,5.00,000.00,025.0,024.4,000.0,033.2,026.8,12.4,0004.1,0008.37,0023.41,0007.18
2024-02-02 22:11:00,SystemResetWarning,0814.2,5.00,000.00,025.0,024.4,000.0,033.2,026.8,12.3,0004.2,0008.35,0022.59,0007.19
2024-02-02 22:12:00,SystemResetWarning,0814.2,5.00,000.00,025.0,024.4,000.0,033.2,026.8,12.3,0004.0,0008.29,0021.39,0007.19
2024-02-02 22:13:00,SystemResetWarning,0814.2,4.99,000.00,025.0,024.5,000.0,033.3,026.8,12.3,0003.7,0008.25,0020.44,0007.20
2024-02-02 22:14:00,SystemResetWarning,0814.2,5.00,000.00,025.0,024.5,000.0,033.3,026.9,12.2,0003.4,0008.21,0019.73,0007.20
2024-02-02 22:15:00,SystemResetWarning,0814.1,5.01,000.00,025.1,024.5,000.0,033.3,026.9,12.3,0003.6,0008.14,0018.78,0007.19
2024-02-02 22:16:00,SystemResetWarning,0814.1,4.99,000.00,025.1,024.5,000.0,033.3,026.9,12.2,0003.6,0008.08,0017.91,0007.19
2024-02-02 22:17:00,SystemResetWarning,0814.1,5.00,000.00,025.1,024.5,000.0,033.3,026.9,12.2,0003.5,0008.02,0016.59,0007.18
2024-02-02 22:18:00,SystemResetWarning,0814.2,5.00,000.00,025.1,024.5,000.0,033.3,026.9,12.3,0003.5,0008.01,0015.96,0007.17
2024-02-02 22:19:00,SystemResetWarning,0814.2,5.01,000.00,025.1,024.5,000.0,033.3,026.9,12.3,0003.4,0008.02,0015.60,0007.19
2024-02-02 22:20:00,SystemResetWarning,0814.1,5.01,000.00,025.1,024.5,000.0,033.3,026.9,12.4,0003.8,0008.03,0015.44,0007.17
2024-02-02 22:21:00,SystemResetWarning,0814.2,5.00,000.00,025.1,024.5,000.0,033.4,026.9,12.2,0003.8,0008.01,0014.66,0007.15
2024-02-02 22:22:00,SystemResetWarning,0814.1,4.99,000.00,025.1,024.5,000.0,033.4,026.9,12.3,0003.3,0008.01,0015.32,0007.15
2024-02-02 22:23:00,SystemResetWarning,0814.1,4.99,000.00,025.1,024.6,000.0,033.4,027.0,12.4,0003.1,0008.05,0015.38,0007.14
2024-02-02 22:24:00,SystemResetWarning,0814.2,5.00,000.00,025.2,024.6,000.0,033.4,027.0,12.5,0003.1,0008.03,0015.37,0007.13
2024-02-02 22:25:00,SystemResetWarning,0814.1,5.01,000.00,025.2,024.6,000.0,033.4,027.0,12.4,0003.2,0008.06,0015.41,0007.13
2024-02-02 22:26:00,SystemResetWarning,0814.1,5.00,000.00,025.2,024.6,000.0,033.4,027.0,12.3,0003.1,0008.10,0016.43,0007.13
2024-02-02 22:27:00,SystemResetWarning,0814.1,5.00,000.00,025.2,024.6,000.0,033.4,027.0,12.3,0003.6,0008.15,0016.90,0007.14
2024-02-02 22:28:00,SystemResetWarning,0814.1,5.01,000.00,025.2,024.6,000.0,033.5,027.0,12.4,0003.8,0008.15,0017.31,0007.14
2024-02-02 22:29:00,SystemResetWarning,0814.0,5.00,000.00,025.2,024.6,000.0,033.5,027.0,12.3,0004.0,0008.18,0017.37,0007.16
2024-02-02 22:30:00,SystemResetWarning,0814.0,4.98,000.00,025.2,024.6,000.0,033.5,027.0,12.3,0003.7,0008.15,0017.43,0007.13
2024-02-02 22:31:00,SystemResetWarning,0813.9,5.01,000.00,025.2,024.6,000.0,033.5,027.0,12.3,0003.6,0008.13,0018.24,0007.12
2024-02-02 22:32:00,SystemResetWarning,0813.9,5.01,000.00,025.2,024.6,000.0,033.5,027.1,12.2,0003.9,0008.16,0019.62,0007.12
2024-02-02 22:33:00,SystemResetWarning,0813.9,5.01,000.00,025.3,024.7,000.0,033.5,027.1,12.2,0004.1,0008.16,0019.15,0007.10
2024-02-02 22:34:00,SystemResetWarning,0813.9,4.99,000.00,025.3,024.7,000.0,033.5,027.1,12.1,0003.8,0008.16,0019.30,0007.08
2024-02-02 22:35:00,SystemResetWarning,0813.9,4.99,000.00,025.3,024.7,000.0,033.5,027.1,12.2,0003.6,0008.14,0019.50,0007.07
2024-02-02 22:36:00,SystemResetWarning,0813.9,5.00,000.00,025.3,024.7,000.0,033.5,027.1,12.2,0003.6,0008.13,0020.57,0007.04
2024-02-02 22:37:00,SystemResetWarning,0813.9,5.01,000.00,025.3,024.7,000.0,033.6,027.1,12.2,0003.2,0008.12,0020.35,0007.01
2024-02-02 22:38:00,SystemResetWarning,0813.9,5.00,000.00,025.3,024.7,000.0,033.6,027.1,12.2,0002.4,0008.08,0021.40,0006.99
2024-02-02 22:39:00,SystemResetWarning,0813.9,5.00,000.00,025.3,024.7,000.0,033.6,027.1,12.2,0001.8,0008.06,0021.72,0006.97
2024-02-02 22:40:00,SystemResetWarning,0813.9,5.00,000.00,025.3,024.8,000.0,033.6,027.2,12.1,0001.5,0008.02,0021.20,0006.95
2024-02-02 22:41:00,SystemResetWarning,0813.9,5.00,000.00,025.4,024.8,000.0,033.6,027.2,12.2,0001.3,0008.02,0022.75,0006.94
2024-02-02 22:42:00,SystemResetWarning,0813.9,5.01,000.00,025.4,024.8,000.0,033.6,027.2,12.1,0001.6,0008.06,0025.27,0006.93
2024-02-02 22:43:00,SystemResetWarning,0813.9,5.00,000.00,025.4,024.8,000.0,033.6,027.2,12.2,0001.3,0008.01,0025.43,0006.92
2024-02-02 22:44:00,SystemResetWarning,0814.0,4.99,000.00,025.4,024.8,000.0,033.6,027.2,12.1,0001.7,0007.95,0025.77,0006.90
2024-02-02 22:45:00,SystemResetWarning,0813.9,5.00,000.00,025.4,024.8,000.0,033.6,027.2,12.1,0002.4,0007.89,0026.12,0006.89
2024-02-02 22:46:00,SystemResetWarning,0814.0,4.99,000.00,025.4,024.8,000.0,033.7,027.2,12.0,0003.1,0007.90,0025.98,0006.89
2024-02-02 22:47:00,SystemResetWarning,0813.9,5.01,000.00,025.4,024.8,000.0,033.7,027.2,12.0,0003.1,0007.87,0025.13,0006.87
2024-02-02 22:48:00,SystemResetWarning,0813.9,5.01,000.00,025.4,024.8,000.0,033.7,027.3,12.0,0003.5,0007.86,0025.50,0006.88
2024-02-02 22:49:00,SystemResetWarning,0813.9,5.00,000.00,025.4,024.8,000.0,033.7,027.3,12.0,0003.7,0007.87,0025.35,0006.88
2024-02-02 22:50:00,SystemResetWarning,0813.9,4.99,000.00,025.4,024.8,000.0,033.7,027.3,11.9,0003.5,0007.90,0025.73,0006.88
2024-02-02 22:51:00,SystemResetWarning,0813.9,4.99,000.00,025.5,024.8,000.0,033.7,027.3,11.8,0003.4,0007.92,0026.37,0006.87
2024-02-02 22:52:00,SystemResetWarning,0813.9,5.00,000.00,025.5,024.8,000.0,033.7,027.3,11.9,0003.8,0007.95,0024.51,0006.85
2024-02-02 22:53:00,SystemResetWarning,0813.9,5.01,000.00,025.5,024.9,000.0,033.7,027.3,12.0,0003.8,0007.95,0021.30,0006.85
2024-02-02 22:54:00,SystemResetWarning,0813.9,5.01,000.00,025.5,024.9,000.0,033.7,027.3,11.9,0004.0,0007.97,0020.42,0006.85
2024-02-02 22:55:00,SystemResetWarning,0813.9,5.01,000.00,025.5,024.9,000.0,033.8,027.3,11.8,0004.0,0007.96,0021.63,0006.85
2024-02-02 22:56:00,SystemResetWarning,0813.9,4.99,000.00,025.5,024.9,000.0,033.8,027.3,11.8,0003.9,0008.00,0021.62,0006.86
2024-02-02 22:57:00,SystemResetWarning,0813.9,5.00,000.00,025.5,024.9,000.0,033.8,027.3,11.9,0003.8,0008.02,0022.69,0006.86
2024-02-02 22:58:00,SystemResetWarning,0813.9,5.00,000.00,025.5,024.9,000.0,033.8,027.3,11.8,0003.9,0008.02,0024.09,0006.86
2024-02-02 22:59:00,SystemResetWarning,0813.9,5.00,000.00,025.5,024.9,000.0,033.8,027.3,11.8,0003.8,0007.96,0024.50,0006.84
